Regional Weather Roundup
Issued by NWS

Home | Current Version | Previous Version | Graphics & Text | Print | Product List | Glossary On
Versions: 1 2 3 4 5 6 7 8 9 10 11 12 13 14 15 16 17 18 19 20 21 22 23 24 25 26 27 28 29 30 31 32 33 34 35 36 37 38 39 40 41 42 43 44 45 46 47 48 49 50
000
ASUS43 KMKX 120011
RWRWI

WISCONSIN REGIONAL WEATHER ROUNDUP
NATIONAL WEATHER SERVICE MILWAUKEE/SULLIVAN WI
700 PM CDT FRI JUL 11 2014

NOTE: "FAIR" INDICATES FEW OR NO CLOUDS BELOW 12,000 FEET WITH NO
SIGNIFICANT WEATHER AND/OR OBSTRUCTIONS TO VISIBILITY.

WIZ001-002-006>008-014>016-023>028-120100-
NORTHWEST WISCONSIN

CITY           SKY/WX    TMP DP  RH WIND       PRES   REMARKS
SUPERIOR ARPT  MOSUNNY   75  69  81 SW6       29.93R
6HR MIN TEMP:  71; 6HR MAX TEMP:  76;

ASHLAND        CLOUDY    74  64  71 SW12G17   29.96S
6HR MIN TEMP:  71; 6HR MAX TEMP:  76;

HAYWARD        CLOUDY    72  65  78 SW12      30.00R
6HR MIN TEMP:  71; 6HR MAX TEMP:  75;

SIREN          PTSUNNY   74  67  79 S8        29.98S
6HR MIN TEMP:  72; 6HR MAX TEMP:  76;

RICE LAKE      CLOUDY    72  65  77 S6        30.02R
6HR MIN TEMP:  72; 6HR MAX TEMP:  76;

LADYSMITH      CLOUDY    72  64  76 S6        30.04R
6HR MIN TEMP:  72; 6HR MAX TEMP:  77;

EAU CLAIRE     CLOUDY    75  66  73 S9        29.99F
6HR MIN TEMP:  73; 6HR MAX TEMP:  79;

MENOMONIE      CLOUDY    75  67  76 SE5       30.00R
6HR MIN TEMP:  73; 6HR MAX TEMP:  78;

NEW RICHMOND   CLOUDY    74  66  76 SE5       29.99S
6HR MIN TEMP:  74; 6HR MAX TEMP:  76;

OSCEOLA        CLOUDY    76  69  79 SE3       30.00S
6HR MIN TEMP:  75; 6HR MAX TEMP:  78;

$$

WIZ003>005-009-010-017-018-120100-
NORTH CENTRAL WISCONSIN

CITY           SKY/WX    TMP DP  RH WIND       PRES   REMARKS
WOODRUFF       PTSUNNY   72  61  69 SW8       30.04S
6HR MIN TEMP:  72; 6HR MAX TEMP:  76;

RHINELANDER    CLOUDY    71  58  63 S12       30.06S
6HR MIN TEMP:  71; 6HR MAX TEMP:  75;

EAGLE RIVER    PTSUNNY   71  56  60 S8        30.04S
6HR MIN TEMP:  70; 6HR MAX TEMP:  74;

LAND O LAKES   CLOUDY    72  58  63 SW8       30.04S
6HR MIN TEMP:  71; 6HR MAX TEMP:  76;

PHILLIPS       CLOUDY    71  63  75 S6        30.03R
6HR MIN TEMP:  69; 6HR MAX TEMP:  76;

TOMAHAWK       CLOUDY    71  60  69 CALM      30.06R
6HR MIN TEMP:  71; 6HR MAX TEMP:  76;

MEDFORD        CLOUDY    70  61  73 S7        30.05S
6HR MIN TEMP:  70; 6HR MAX TEMP:  74;

MERRILL        CLOUDY    73  60  63 S8        30.06R
6HR MIN TEMP:  71; 6HR MAX TEMP:  76;

$$

WIZ029-030-035-036-043>047-120100-
CENTRAL WISCONSIN

CITY           SKY/WX    TMP DP  RH WIND       PRES   REMARKS
WAUSAU         CLOUDY    74  57  55 S12       30.04F
6HR MIN TEMP:  73; 6HR MAX TEMP:  78;

MOSINEE        MOSUNNY   72  57  60 S10       30.06F
MARSHFIELD     CLOUDY    72  61  68 S10       30.06R
6HR MIN TEMP:  71; 6HR MAX TEMP:  76;

STEVENS POINT  PTSUNNY   72  54  54 S10G17    30.07S
6HR MIN TEMP:  72; 6HR MAX TEMP:  75;

WAUPACA        SUNNY     76  55  48 S7        30.08F
6HR MIN TEMP:  76; 6HR MAX TEMP:  81;

WAUTOMA        MOSUNNY   76  58  53 S7        30.08F
6HR MIN TEMP:  74; 6HR MAX TEMP:  78;

WISC RAPIDS    PTSUNNY   74  58  57 S8        30.07S
6HR MIN TEMP:  73; 6HR MAX TEMP:  79;

CAMP DOUGLAS   NOT AVBL
$$

WIZ011>013-019>022-031-037>040-048>050-120100-
NORTHEAST WISCONSIN

CITY           SKY/WX    TMP DP  RH WIND       PRES   REMARKS
ANTIGO         PTSUNNY   71  58  65 S10       30.07F
6HR MIN TEMP:  69; 6HR MAX TEMP:  74;

STURGEON BAY   PTSUNNY   72  54  53 S13       30.09S
6HR MIN TEMP:  70; 6HR MAX TEMP:  75;

GREEN BAY      PTSUNNY   77  55  46 S15G22    30.08S
6HR MIN TEMP:  77; 6HR MAX TEMP:  80;

MANITOWOC      MOSUNNY   73  54  51 S12       30.11R
6HR MIN TEMP:  70; 6HR MAX TEMP:  75;

APPLETON       PTSUNNY   75  55  50 SW12G17   30.10S
CLINTONVILLE   PTSUNNY   73  54  49 SW9       30.07S
OSHKOSH        PTSUNNY   74  56  53 S8        30.09S
6HR MIN TEMP:  74; 6HR MAX TEMP:  80;

$$

WIZ032>034-041-042-053>061-120100-
SOUTHWEST WISCONSIN

CITY           SKY/WX    TMP DP  RH WIND       PRES   REMARKS
LA CROSSE      CLOUDY    78  65  63 S12       30.02R HX  80
6HR MIN TEMP:  69; 6HR MAX TEMP:  81; 6HR PCP: TRACE;

SPARTA         MOSUNNY   75  62  64 S8        30.05S
6HR MIN TEMP:  67; 6HR MAX TEMP:  77;

VIROQUA        MOCLDY    74  64  69 S9        30.07S
6HR MIN TEMP:  66; 6HR MAX TEMP:  76;

BOSCOBEL       PTSUNNY   77  63  61 VRB5      30.06S
6HR MIN TEMP:  71; 6HR MAX TEMP:  80;

PRAIRIE DU CHI CLOUDY    76  63  64 SE6       30.04S
6HR MIN TEMP:  69; 6HR MAX TEMP:  78;

PLATTEVILLE    FAIR      74  65  74 SE7       30.09R
6HR MIN TEMP:  70; 6HR MAX TEMP:  76;

$$

WIZ056-057-062-063-064-067-068-120100-
SOUTH CENTRAL WISCONSIN

CITY           SKY/WX    TMP DP  RH WIND       PRES   REMARKS
BARABOO/DELLS  MOSUNNY   74  57  55 S9        30.08S
6HR MIN TEMP:  67; 6HR MAX TEMP:  76;

LONE ROCK      MOSUNNY   79  66  64 SE3       30.07F HX  81
6HR MIN TEMP:  73; 6HR MAX TEMP:  80; 6HR PCP: TRACE;

WATERTOWN      PTSUNNY   73  56  54 S8        30.10S
6HR MIN TEMP:  72; 6HR MAX TEMP:  76;

MADISON        PTSUNNY   76  57  51 S10       30.09S
6HR MIN TEMP:  72; 6HR MAX TEMP:  77; 6HR PCP: TRACE;

MIDDLETON      MOCLDY    75  56  51 S7        30.09S
6HR MIN TEMP:  72; 6HR MAX TEMP:  78;

MONROE         PTSUNNY   72  63  73 CALM      30.10S
JANESVILLE     SUNNY     75  57  53 SE6       30.09F
$$

WIZ051-052-058>065-066-070>072-120100-
SOUTHEAST WISCONSIN

CITY           SKY/WX    TMP DP  RH WIND       PRES   REMARKS
MILWAUKEE      PTSUNNY   72  53  51 S7        30.12S
6HR MIN TEMP:  70; 6HR MAX TEMP:  79; 6HR PCP: TRACE;

WAUKESHA       SUNNY     73  54  49 S12       30.13R
MILWAUKEE/TIMM SUNNY     72  46  40 S8        30.13R
RACINE         CLOUDY    73  56  54 S5        30.14R
6HR MIN TEMP:  69; 6HR MAX TEMP:  78; 6HR PCP: TRACE;

BURLINGTON     CLOUDY    71  57  62 CALM      30.11F
6HR MIN TEMP:  71; 6HR MAX TEMP:  78;

KENOSHA        PTSUNNY   72  59  63 S3        30.12R
6HR MIN TEMP:  71; 6HR MAX TEMP:  80; 6HR PCP: TRACE;

FOND DU LAC    PTSUNNY   73  54  51 S7        30.10S
6HR MIN TEMP:  73; 6HR MAX TEMP:  78;

SHEBOYGAN      MOSUNNY   73  52  47 S15       30.11S
6HR MIN TEMP:  73; 6HR MAX TEMP:  79;

WEST BEND      MOSUNNY   72  52  49 S8        30.12S
JUNEAU         CLOUDY    73  40  31 S8        30.12S
6HR MIN TEMP:  72; 6HR MAX TEMP:  76;

$$

LSZ147-162-120100-
LAKE SUPERIOR

STATION/POSITION TIME  TEMP    WIND        PRES    WAVE
                       AIR SEA DIR/SP/G            HT/PER
                 (UTC) (F)     (DEG/KT/KT) (MB)    (FT/S)
W MID LAKE BUOY  2350   49 38  210/  8/ 10 1013.4F   1/ 4
PORT WING        2340   74     210/  8/ 11 1013.9S
SAXON HARBOR     2300          200/  6/ 11 1014.2
$$

LMZ867-665-643>646-120100-
LAKE MICHIGAN

STATION/POSITION TIME  TEMP    WIND        PRES    WAVE
                       AIR SEA DIR/SP/G            HT/PER
                 (UTC) (F)     (DEG/KT/KT) (MB)    (FT/S)
N MID LAKE BUOY  2350   59 53  200/ 16/ 17 1018.0R   3/ 5
NORTHPORT PIER   2300   68     180/  6/ 13 1018.3R
KEWAUNEE LAKESHO 2300   56     170/ 10/ 11 1020.0R
SHEBOYGAN LAKESH 0000   71     180/ 18/ 18 1019.6R
MILWAUKEE LAKESH 2300   67     180/  7/  9   N/A
S MID LAKE BUOY  2350   65 63  100/  4/  4 1020.3R   0
KENOSHA   LAKESH 0000   69     180/  7/ 10   N/A
$$

TC  - TEMPERATURE IN CELSIUS
VSB - VISIBILITY IN STATUTE MILES
WCI - WIND CHILL INDEX
HX  - HEAT INDEX



USA.gov is the U.S. government's official web portal to all federal, state and local government web resources and services.